TimeCDT,TemperatureF,Dew PointF,Humidity,Sea Level PressureIn,VisibilityMPH,Wind Direction,Wind SpeedMPH,Gust SpeedMPH,PrecipitationIn,Events,Conditions,WindDirDegrees,DateUTC
12:51 AM,66.0,57.9,75,29.83,10.0,NNE,5.8,-,N/A,,Clear,20,2013-09-24 05:51:00
1:51 AM,66.0,57.0,73,29.83,10.0,Calm,Calm,-,N/A,,Clear,0,2013-09-24 06:51:00
2:51 AM,64.0,55.9,75,29.84,10.0,North,6.9,-,N/A,,Clear,10,2013-09-24 07:51:00
3:51 AM,63.0,55.9,78,29.85,10.0,North,9.2,-,N/A,,Clear,360,2013-09-24 08:51:00
4:51 AM,63.0,55.9,78,29.84,10.0,North,6.9,-,N/A,,Clear,350,2013-09-24 09:51:00
5:51 AM,62.1,55.9,80,29.85,10.0,North,6.9,-,N/A,,Clear,360,2013-09-24 10:51:00
6:51 AM,61.0,55.0,81,29.87,10.0,North,5.8,-,N/A,,Clear,10,2013-09-24 11:51:00
7:51 AM,62.1,55.9,80,29.89,10.0,North,4.6,-,N/A,,Clear,360,2013-09-24 12:51:00
8:51 AM,72.0,57.9,61,29.90,10.0,North,3.5,-,N/A,,Clear,350,2013-09-24 13:51:00
9:51 AM,82.0,57.9,44,29.92,10.0,Variable,3.5,-,N/A,,Clear,0,2013-09-24 14:51:00
10:51 AM,89.1,52.0,28,29.92,10.0,Variable,3.5,-,N/A,,Clear,0,2013-09-24 15:51:00
11:51 AM,91.0,51.1,25,29.91,10.0,Calm,Calm,-,N/A,,Clear,0,2013-09-24 16:51:00
12:51 PM,93.9,52.0,24,29.90,10.0,Variable,5.8,-,N/A,,Clear,0,2013-09-24 17:51:00
1:51 PM,95.0,52.0,23,29.87,10.0,Calm,Calm,-,N/A,,Clear,0,2013-09-24 18:51:00
2:51 PM,98.1,52.0,21,29.85,10.0,Variable,4.6,-,N/A,,Clear,0,2013-09-24 19:51:00
3:51 PM,97.0,50.0,20,29.83,10.0,SE,5.8,-,N/A,,Clear,140,2013-09-24 20:51:00
4:51 PM,100.0,51.1,19,29.81,10.0,North,4.6,-,N/A,,Clear,350,2013-09-24 21:51:00
5:51 PM,98.1,52.0,21,29.81,10.0,East,5.8,-,N/A,,Clear,100,2013-09-24 22:51:00
6:51 PM,95.0,54.0,25,29.81,10.0,SE,13.8,-,N/A,,Clear,140,2013-09-24 23:51:00
7:51 PM,88.0,53.1,30,29.82,10.0,SSE,8.1,-,N/A,,Clear,160,2013-09-25 00:51:00
8:51 PM,84.9,54.0,34,29.83,10.0,ESE,8.1,-,N/A,,Clear,120,2013-09-25 01:51:00
9:51 PM,84.0,55.9,38,29.85,10.0,East,6.9,-,N/A,,Clear,90,2013-09-25 02:51:00
10:51 PM,79.0,59.0,50,29.86,10.0,Calm,Calm,-,N/A,,Clear,0,2013-09-25 03:51:00
11:51 PM,73.0,59.0,61,29.87,10.0,NNW,3.5,-,N/A,,Clear,330,2013-09-25 04:51:00